Location: Namasale
(1.5000°N, 32.6167°E)
Time: 05:18:34
(UTC+00:00)

Hubble Space Telescope - Pass Details

Date: 10 December 2021
Orbit: 534 x 538 km, 28.5° (Epoch: 19 January)

Event Time Altitude Azimuth Distance (km) Brightness Sun altitude
Exits shadow 02:29:40 27° 339° (NNW) 1,039 1.8 -17.3°
Maximum altitude 02:31:20 41° 30° (NNE) 776 1.6 -16.9°
Drops below altitude 10° 02:35:13 10° 101° (E) 1,773 4.7 -16.0°
Sets 02:37:34 0° 108° (ESE) 2,664 6.2 -15.5°
